Orbital Elements at Epoch 2459000.5 (2020-May-31.0) TDB
Reference: JPL 19 (heliocentric ecliptic J2000)
Element | Value | Uncertainty (1-sigma) | Units |
e | .03905462859246069 | 3.2803e-08 | |
a | 2.187465649262131 | 7.7928e-09 | au |
q | 2.102034990771432 | 7.42e-08 | au |
i | 5.835489276610068 | 3.8138e-06 | deg |
node | 198.0388944974754 | 3.525e-05 | deg |
peri | 222.7020156503204 | 6.3164e-05 | deg |
M | 282.5021237399711 | 5.1256e-05 | deg |
tp | 2459254.888567752321 (2021-Feb-09.38856775) | 0.00016807 | TDB |
period | 1181.708310090424 3.24 | 6.3147e-06 1.729e-08 | d yr |
n | .3046437068488186 | 1.6279e-09 | deg/d |
Q | 2.272896307752829 | 8.0971e-09 | au |
|
| | Orbit Determination Parameters
Additional Information
|